FW8645 Weather Reports


Display with metric or nautical units.
time (UTC)temp
F
wind
direction
speed
MPH
gust
MPH
rain 1hr
in
rain 24hr
in
rain mn
in
humidity
%
barometer
mb
20260504205313 68 228 6.0 15.0 0.00 0.00 0.00 35 1004.6
20260504204826 68 287 9.0 20.0 0.00 0.00 0.00 35 1004.6
20260504204321 68 255 6.0 20.0 0.00 0.00 0.00 35 1004.7
20260504203816 68 280 8.0 17.0 0.00 0.00 0.00 34 1004.6
20260504203350 69 271 5.0 12.0 0.00 0.00 0.00 34 1004.6
20260504202824 69 299 7.0 15.0 0.00 0.00 0.00 35 1004.5
20260504202318 68 306 8.0 18.0 0.00 0.00 0.00 34 1004.5
20260504201816 68 240 12.0 18.0 0.00 0.00 0.00 35 1004.5
20260504201330 68 230 9.0 22.0 0.00 0.00 0.00 35 1004.6
20260504200825 68 228 10.0 22.0 0.00 0.00 0.00 34 1004.6
20260504200320 68 256 12.0 19.0 0.00 0.00 0.00 34 1004.6
20260504195815 68 276 9.0 20.0 0.00 0.00 0.00 35 1004.9
20260504195330 68 228 10.0 20.0 0.00 0.00 0.00 35 1004.8
20260504194824 68 254 11.0 18.0 0.00 0.00 0.00 36 1004.8
20260504194319 67 239 6.0 17.0 0.00 0.00 0.00 37 1004.9
20260504193817 67 260 8.0 17.0 0.00 0.00 0.00 36 1004.8
20260504193313 68 245 6.0 17.0 0.00 0.00 0.00 36 1004.9
20260504192826 68 277 10.0 18.0 0.00 0.00 0.00 36 1004.9
20260504192321 68 287 11.0 18.0 0.00 0.00 0.00 36 1005.0
20260504191815 68 231 11.0 22.0 0.00 0.00 0.00 36 1004.9
20260504191331 68 262 10.0 22.0 0.00 0.00 0.00 36 1005.0
20260504190845 68 239 7.0 18.0 0.00 0.00 0.00 36 1005.0
20260504190340 68 290 7.0 24.0 0.00 0.00 0.00 37 1005.0
20260504185818 67 247 7.0 17.0 0.00 0.00 0.00 38 1005.0
20260504185313 67 274 10.0 17.0 0.00 0.00 0.00 37 1005.1
20260504184849 66 268 7.0 17.0 0.00 0.00 0.00 39 1005.0
20260504184323 66 287 9.0 18.0 0.00 0.00 0.00 39 1005.1
20260504183819 65 275 9.0 18.0 0.00 0.00 0.00 39 1005.2
20260504183314 65 265 5.0 16.0 0.00 0.00 0.00 40 1005.3
20260504182810 64 243 10.0 18.0 0.00 0.00 0.00 40 1005.3
20260504182325 63 253 3.0 18.0 0.00 0.00 0.00 42 1005.4
20260504181839 63 265 3.0 11.0 0.00 0.00 0.00 42 1005.5
20260504181317 63 252 4.0 19.0 0.00 0.00 0.00 42 1005.5
20260504180811 63 271 7.0 12.0 0.00 0.00 0.00 42 1005.6
20260504180326 63 278 3.0 13.0 0.00 0.00 0.00 42 1005.5
20260504175820 63 242 7.0 13.0 0.00 0.00 0.00 41 1005.5
20260504175336 63 277 5.0 17.0 0.00 0.00 0.00 41 1005.5
20260504174810 63 273 9.0 18.0 0.00 0.00 0.00 41 1005.4
20260504174324 63 257 5.0 18.0 0.00 0.00 0.00 40 1005.4
20260504173816 64 278 9.0 17.0 0.00 0.00 0.00 39 1005.4
20260504173310 64 228 5.0 13.0 0.00 0.00 0.00 40 1005.4
20260504172821 64 260 4.0 12.0 0.00 0.00 0.00 40 1005.4
20260504172351 64 273 4.0 12.0 0.00 0.00 0.00 40 1005.4
20260504171820 64 249 5.0 13.0 0.00 0.00 0.00 39 1005.4
20260504171313 64 227 4.0 17.0 0.00 0.00 0.00 39 1005.5
20260504170827 64 262 8.0 18.0 0.00 0.00 0.00 38 1005.4
20260504160323 65 273 7.0 20.0 0.00 0.00 0.00 37 1005.2
20260504150816 62 247 10.0 25.0 0.00 0.00 0.00 41 1006.0
20260504150328 61 223 11.0 21.0 0.00 0.00 0.00 42 1005.9
20260504141322 58 228 8.0 16.0 0.00 0.00 0.00 49 1006.6
20260504140818 57 237 7.0 14.0 0.00 0.00 0.00 50 1006.6
20260504140312 57 251 5.0 14.0 0.00 0.00 0.00 52 1006.7
20260504130821 53 233 6.0 11.0 0.00 0.00 0.00 59 1007.3
20260504130316 53 232 3.0 10.0 0.00 0.00 0.00 60 1007.4
20260504110326 46 230 6.0 12.0 0.00 0.00 0.00 66 1008.1
20260504100312 44 274 3.0 7.0 0.00 0.00 0.00 66 1007.9
20260504081845 44 258 2.0 8.0 0.00 0.00 0.00 59 1007.9
20260504081322 44 262 1.0 8.0 0.00 0.00 0.00 58 1007.9
20260504080817 44 277 4.0 12.0 0.00 0.00 0.00 58 1007.8
20260504080312 44 267 4.0 12.0 0.00 0.00 0.00 57 1008.0
20260504070320 41 259 1.0 4.0 0.00 0.00 0.00 61 1007.7
20260504050314 42 228 4.0 10.0 0.00 0.02 0.00 60 1007.7
20260504045850 42 244 5.0 10.0 0.00 0.02 0.00 60 1007.7
20260504045345 42 228 6.0 9.0 0.00 0.02 0.00 60 1007.7
20260504044824 41 239 4.0 8.0 0.00 0.02 0.00 61 1007.7
20260504044319 41 242 3.0 7.0 0.00 0.02 0.00 61 1007.8
20260504043814 41 270 3.0 7.0 0.00 0.02 0.00 61 1007.8
20260504043330 41 242 3.0 7.0 0.00 0.02 0.00 61 1007.7
20260504042826 41 281 3.0 8.0 0.00 0.02 0.00 62 1007.7
20260504042321 41 243 3.0 8.0 0.00 0.03 0.00 63 1007.6
20260504041817 41 248 4.0 7.0 0.00 0.03 0.00 63 1007.6
20260504041316 40 233 3.0 7.0 0.00 0.03 0.00 66 1007.6
20260504040812 40 228 3.0 7.0 0.00 0.03 0.00 67 1007.5
20260504040327 40 228 3.0 7.0 0.00 0.03 0.00 67 1007.4
20260504035823 40 228 3.0 11.0 0.00 0.03 0.00 68 1007.4
20260504035339 39 239 4.0 11.0 0.00 0.03 0.00 68 1007.5
20260504034815 39 230 2.0 5.0 0.00 0.03 0.00 71 1007.4
20260504034351 39 235 2.0 6.0 0.00 0.03 0.00 70 1007.4
20260504033825 40 224 3.0 7.0 0.00 0.03 0.00 65 1007.5
20260504033324 41 226 3.0 7.0 0.00 0.03 0.00 65 1007.5
20260504032820 41 247 3.0 6.0 0.00 0.03 0.00 65 1007.4
20260504032315 41 234 2.0 5.0 0.00 0.03 0.03 66 1007.4
20260504031810 42 249 3.0 9.0 0.00 0.03 0.03 62 1007.4
20260504031345 43 268 1.0 8.0 0.00 0.03 0.03 61 1007.3
20260504030820 43 282 3.0 8.0 0.00 0.03 0.03 58 1007.3
20260504030315 43 273 2.0 6.0 0.00 0.03 0.03 58 1007.3
20260504025851 43 243 3.0 11.0 0.00 0.03 0.03 59 1007.4
20260504025326 43 268 4.0 12.0 0.00 0.03 0.03 59 1007.4
20260504024824 42 253 5.0 12.0 0.00 0.03 0.03 61 1007.4
20260504024320 42 267 4.0 8.0 0.00 0.03 0.03 62 1007.5
20260504023815 42 267 4.0 6.0 0.00 0.03 0.03 62 1007.4
20260504023310 41 254 2.0 4.0 0.00 0.03 0.03 63 1007.4
20260504022845 42 235 1.0 5.0 0.00 0.03 0.03 63 1007.4
20260504022319 42 269 3.0 6.0 0.00 0.03 0.03 61 1007.5
20260504021814 42 268 3.0 6.0 0.00 0.03 0.03 63 1007.5
20260504021313 42 249 1.0 4.0 0.00 0.03 0.03 63 1007.5
20260504020829 42 249 1.0 3.0 0.00 0.03 0.03 61 1007.4
20260504020325 43 249 1.0 3.0 0.00 0.03 0.03 60 1007.4
20260504015819 43 239 1.0 5.0 0.00 0.03 0.03 59 1007.5
20260504015314 44 253 2.0 7.0 0.00 0.03 0.03 57 1007.5
20260504014829 44 244 3.0 7.0 0.00 0.03 0.03 56 1007.5
20260504014344 44 247 4.0 6.0 0.00 0.03 0.03 55 1007.5
20260504013838 44 267 3.0 9.0 0.00 0.03 0.03 55 1007.5
20260504013332 45 242 3.0 9.0 0.00 0.03 0.03 54 1007.5
20260504012825 45 214 3.0 8.0 0.00 0.03 0.03 53 1007.4
20260504012323 45 242 4.0 8.0 0.00 0.04 0.03 53 1007.5
20260504011818 45 253 3.0 8.0 0.00 0.04 0.03 53 1007.5
20260504011312 45 265 4.0 9.0 0.00 0.04 0.03 53 1007.4
20260504010827 45 274 5.0 13.0 0.00 0.04 0.03 53 1007.3
20260504010321 45 275 6.0 13.0 0.00 0.04 0.03 54 1007.3
20260504005815 45 254 3.0 9.0 0.00 0.04 0.03 54 1007.2
20260504005329 44 255 4.0 9.0 0.00 0.04 0.03 54 1007.1
20260504004827 44 261 3.0 5.0 0.00 0.04 0.03 54 1007.1
20260504004342 44 271 1.0 4.0 0.00 0.04 0.03 54 1007.0
20260504003815 45 271 2.0 6.0 0.00 0.04 0.03 54 1006.9
20260504003328 45 261 3.0 7.0 0.00 0.04 0.03 53 1006.9
20260504002822 45 276 3.0 9.0 0.00 0.04 0.03 54 1006.9
20260504002337 45 261 2.0 9.0 0.00 0.05 0.03 54 1006.8
20260504001810 45 292 3.0 7.0 0.00 0.05 0.03 55 1006.8
20260504001325 45 246 3.0 5.0 0.00 0.05 0.03 55 1006.8
20260504000821 45 254 2.0 5.0 0.00 0.05 0.03 54 1006.7
20260504000320 45 259 1.0 3.0 0.00 0.05 0.03 55 1006.6
20260503235814 46 277 1.0 7.0 0.00 0.05 0.03 53 1006.5
20260503235350 46 261 2.0 5.0 0.00 0.05 0.03 52 1006.4
20260503234824 46 231 2.0 5.0 0.00 0.05 0.03 52 1006.4
20260503234339 46 270 2.0 7.0 0.00 0.05 0.03 51 1006.3
20260503233813 46 273 2.0 7.0 0.00 0.05 0.03 51 1006.2
20260503233347 47 247 1.0 9.0 0.00 0.05 0.03 50 1006.2
20260503232821 47 281 2.0 9.0 0.00 0.05 0.03 49 1006.2
20260503232316 47 274 3.0 7.0 0.00 0.06 0.03 49 1006.2
20260503231835 48 261 1.0 7.0 0.00 0.06 0.03 49 1006.2
20260503231329 48 271 2.0 6.0 0.00 0.06 0.03 48 1006.1
20260503230824 48 242 2.0 11.0 0.00 0.06 0.03 47 1006.1
20260503230339 48 264 6.0 15.0 0.00 0.06 0.03 46 1006.0
20260503225833 49 249 3.0 13.0 0.00 0.06 0.03 46 1006.0
20260503225326 49 295 4.0 13.0 0.00 0.06 0.03 46 1005.9
20260503224821 49 7 3.0 14.0 0.00 0.06 0.03 45 1005.9
20260503224316 49 302 5.0 14.0 0.00 0.06 0.03 45 1005.9
20260503223830 49 360 6.0 14.0 0.00 0.06 0.03 44 1005.8
20260503223329 50 312 5.0 10.0 0.00 0.06 0.03 44 1005.8
20260503222824 50 216 4.0 11.0 0.00 0.06 0.03 45 1005.7
20260503222320 50 55 5.0 15.0 0.00 0.06 0.03 44 1005.7
20260503221833 50 302 5.0 12.0 0.00 0.06 0.03 45 1005.7
20260503221326 50 282 3.0 10.0 0.00 0.06 0.03 46 1005.7
20260503220841 50 351 4.0 17.0 0.00 0.06 0.03 45 1005.7
20260503220315 50 296 7.0 17.0 0.00 0.06 0.03 45 1005.6
20260503215830 50 277 6.0 15.0 0.00 0.06 0.03 44 1005.5
20260503215324 50 13 6.0 17.0 0.00 0.06 0.03 44 1005.4
20260503214822 50 3 7.0 23.0 0.00 0.06 0.03 44 1005.5
20260503214317 50 276 7.0 23.0 0.00 0.06 0.03 43 1005.4
20260503213811 50 301 5.0 14.0 0.00 0.06 0.03 42 1005.3
20260503213346 51 307 4.0 13.0 0.00 0.06 0.03 43 1005.3
20260503212840 51 226 3.0 10.0 0.00 0.06 0.03 44 1005.3
20260503212334 50 111 4.0 11.0 0.00 0.06 0.03 44 1005.3
20260503211827 50 266 6.0 11.0 0.00 0.06 0.03 43 1005.2
20260503211321 50 330 3.0 8.0 0.00 0.06 0.03 44 1005.2
20260503210816 50 327 4.0 7.0 0.00 0.06 0.03 45 1005.2
20260503210314 49 251 2.0 10.0 0.00 0.06 0.03 46 1005.0
20260503205829 50 292 4.0 12.0 0.00 0.06 0.03 47 1005.0